FW0320 Weather Reports


time (UTC)temp
C
wind
direction
speed
KPH
gust
KPH
rain 1hr
cm
rain 24hr
cm
rain mn
cm
humidity
%
barometer
mb
20260507084557 9 129 0.0 1.6 0.03 1.70 0.03 90 1008.3
20260507083050 9 129 0.0 0.0 0.03 1.70 0.03 90 1008.3
20260507081548 9 129 0.0 0.0 0.00 1.68 0.00 89 1008.2
20260507074545 10 125 0.0 4.8 0.00 1.68 0.00 88 1008.2
20260507073048 10 59 0.0 0.0 0.00 1.68 0.00 88 1008.1
20260507071542 10 59 0.0 0.0 0.00 1.68 0.00 88 1007.8
20260507070042 10 24 0.0 0.0 0.00 1.68 0.00 89 1007.9
20260507064541 10 24 0.0 1.6 0.00 1.68 0.00 89 1007.6
20260507063040 10 24 0.0 3.2 0.00 1.75 0.00 90 1007.6
20260507061538 10 24 0.0 3.2 0.03 1.75 0.00 89 1007.6
20260507060036 10 323 0.0 3.2 0.03 1.75 0.00 90 1007.6
20260507054538 10 256 0.0 3.2 0.03 1.75 1.75 91 1008.0
20260507053034 10 161 0.0 3.2 0.03 1.75 1.75 91 1008.2
20260507051533 11 162 0.0 3.2 0.03 1.75 1.75 90 1008.2
20260507050034 11 163 1.6 3.2 0.03 1.73 1.73 90 1008.1
20260507044530 11 267 1.6 4.8 0.08 1.73 1.73 89 1007.8
20260507043028 12 331 0.0 3.2 0.08 1.73 1.73 90 1007.8
20260507041525 12 21 1.6 4.8 0.08 1.73 1.73 91 1007.9
20260507040024 12 9 0.0 4.8 0.08 1.70 1.70 90 1007.9
20260507034522 13 304 1.6 6.4 0.03 1.65 1.65 90 1007.3
20260507033023 13 9 1.6 3.2 0.03 1.65 1.65 91 1006.9
20260507031517 14 348 1.6 8.0 0.03 1.65 1.65 90 1006.8
20260507030019 15 46 1.6 8.0 0.00 1.63 1.63 93 1006.7
20260507024516 15 28 1.6 4.8 0.00 1.63 1.63 93 1006.6
20260507023015 15 144 0.0 3.2 0.00 1.63 1.63 92 1006.6
20260507021514 14 144 0.0 3.2 0.00 1.63 1.63 92 1006.3
20260507020014 14 267 0.0 6.4 0.00 1.63 1.63 92 1006.4
20260507014521 14 9 1.6 6.4 0.00 1.63 1.63 92 1006.4
20260507013032 14 263 0.0 6.4 0.00 1.63 1.63 92 1006.5
20260507011514 14 176 0.0 4.8 0.00 1.63 1.63 92 1006.5
20260507010023 15 329 0.0 4.8 0.00 1.63 1.63 92 1006.6
20260507004512 15 360 1.6 6.4 0.00 2.08 1.63 92 1006.6
20260507003011 15 9 1.6 8.0 0.00 2.08 1.63 91 1006.3
20260507001510 15 351 1.6 4.8 0.03 2.08 1.63 91 1006.4
20260507000011 15 87 0.0 8.0 0.03 2.08 1.63 91 1006.3
20260506234514 15 30 1.6 9.7 0.03 2.69 1.63 91 1006.3
20260506233010 15 75 0.0 6.4 0.03 2.69 1.63 91 1006.1
20260506231508 15 147 3.2 8.0 0.03 2.69 1.63 91 1006.2
20260506230009 15 96 0.0 8.0 0.00 2.67 1.60 91 1006.3
20260506224506 15 110 1.6 6.4 0.03 3.35 1.60 90 1006.5
20260506223004 15 350 1.6 9.7 0.03 3.35 1.60 90 1006.4
20260506221502 15 97 3.2 12.9 0.03 3.35 1.60 90 1006.6
20260506220000 15 338 1.6 6.4 0.03 3.35 1.60 89 1006.5
20260506214600 15 13 1.6 12.9 0.05 3.33 1.57 88 1006.6
20260506213122 15 25 1.6 8.0 0.08 4.75 1.57 88 1006.7
20260506211558 15 125 1.6 12.9 0.08 4.75 1.57 89 1007.0
20260506204556 15 333 4.8 14.5 0.03 4.70 1.52 87 1007.5
20260506203055 16 55 1.6 8.0 0.00 5.08 1.50 86 1007.3
20260506201553 16 145 1.6 11.3 0.00 5.08 1.50 85 1007.3
20260506194552 17 163 1.6 6.4 0.00 5.08 1.50 83 1007.2
20260506193051 17 127 0.0 8.0 0.00 5.08 1.50 81 1007.2
20260506191548 17 63 1.6 9.7 0.00 5.08 1.50 78 1007.0
20260506184551 19 109 1.6 4.8 0.13 5.08 1.50 72 1007.3
20260506183054 20 233 3.2 11.3 0.18 5.08 1.50 67 1007.3
20260506181611 20 210 1.6 4.8 0.18 5.08 1.50 64 1007.4
20260506174543 21 306 6.4 19.3 0.25 5.00 1.40 53 1007.3
20260506173055 22 30 3.2 11.3 0.23 4.93 1.32 54 1007.3
20260506171540 22 76 1.6 16.1 0.23 4.93 1.32 55 1007.3
20260506164538 21 163 4.8 17.7 0.05 4.75 1.14 58 1007.9
20260506163037 21 60 1.6 12.9 0.05 4.70 1.09 58 1008.1
20260506161532 21 14 1.6 6.4 0.10 4.70 1.09 58 1008.2
20260506154532 20 164 3.2 12.9 0.33 4.70 1.09 60 1008.9
20260506153029 20 326 3.2 12.9 0.38 4.65 1.04 60 1009.2
20260506151529 21 32 1.6 14.5 0.58 4.60 0.99 60 1009.3
20260506144525 20 324 3.2 17.7 0.51 4.39 0.79 62 1009.4
20260506143023 20 24 1.6 14.5 0.41 4.27 0.66 64 1009.3
20260506141519 20 33 4.8 20.9 0.15 4.01 0.41 64 1009.2
20260506134516 18 219 3.2 16.1 0.05 3.89 0.28 68 1009.5
20260506133013 18 344 3.2 8.0 0.05 3.89 0.28 69 1009.9
20260506131516 17 201 3.2 16.1 0.08 3.86 0.25 70 1010.1
20260506124509 17 69 1.6 14.5 0.13 3.84 0.23 71 1010.0
20260506123006 17 355 3.2 12.9 0.13 3.84 0.23 72 1009.9
20260506121505 17 336 1.6 8.0 0.10 3.78 0.18 72 1010.2
20260506114513 16 148 1.6 11.3 0.03 3.71 0.10 74 1010.2
20260506113012 16 9 3.2 9.7 0.03 3.71 0.10 74 1010.4
20260506111503 16 342 0.0 9.7 0.00 3.68 0.08 75 1010.4
20260506104503 15 12 1.6 6.4 0.00 3.68 0.08 77 1010.6
20260506103001 15 348 1.6 11.3 0.00 3.68 0.08 77 1010.3
20260506101600 15 151 3.2 9.7 0.00 3.68 0.08 77 1010.4
20260506094557 15 95 0.0 8.0 0.00 3.68 0.08 75 1010.2
20260506093057 15 96 1.6 6.4 0.00 3.68 0.08 75 1010.2
20260506091600 15 105 1.6 8.0 0.00 3.68 0.08 75 1010.2